Powrót do katalogu

COSMOS 2236

GLONASS

AktywnyNawigacjaMEO
NORAD 22513·PAYLOAD·🇷🇺 Russia

Wystrzelony Feb 17, 1993 z Baikonur Cosmodrome

Loading…

Następne Przeloty (najbliższe 24 godziny)

TLE

ŚwieżeSource: Space-Track

Epoka: Sep 13, 2026, 12:05 UTC

1 22513U 93010B   26256.50368495 -.00000014  00000-0  00000-0 0  9993
2 22513  64.9541  66.9525 0005466  83.2188 266.8735  2.13104576261250

Śledź COSMOS 2236 w czasie rzeczywistym z AllMySat

Download on the App Store